weather.gov     
National Weather Service

Regional Weather Roundup
NWS Homepage
This page is being discontinued on March 12, 2014.
The same data is available at this site. Please update your bookmarks.
Thank you, and we apologize for the inconvenience.
Please send an email to SR-SRH.Webmaster@noaa.gov with any concerns.


Current Version
Previous Version:    01  02  03  04  05  06  07  08  09  10  11  12  13  14  15  16  17  18  19  20  21  22  23  24  25  26  27  28  29  30  
   31  32  33  34  35  36  37  38  39  40  41  42  43  44  45  46  47  48  49  50  51  52  53  54  55  56  57  58  59  60  
[Printable]
023
ASUS43 KEAX 240211
RWREAX

WEATHER ROUNDUP FOR EASTERN KANSAS AND NORTHWEST MISSOURI
NATIONAL WEATHER SERVICE KANSAS CITY/PLEASANT HILL MO
900 PM CDT WED APR 23 2014

KSZ040-057-103>105-MOZ028-029-037-043-240300-
...KANSAS CITY METROPOLITAN AREA...

CITY           SKY/WX    TMP DP  RH WIND       PRES   REMARKS
K.C. INTL      PTCLDY    69  41  36 SE22G32   29.66F
K.C. DOWNTOWN  CLEAR     72  42  34 SE16G22   29.67F
LEES SUMMIT    PTCLDY    70  42  36 SE10G22   29.71F
OLATHE - IXD   PTCLDY    70  44  39 SE22      29.68F
OLATHE - OJC   PTCLDY    70  43  37 SE21G30   29.68F
LAWRENCE       CLEAR     72  47  40 SE20G26   29.64F

$$

MOZ001>008-011>017-020>025-030>033-038>040-044>046-053-054-240300-
...NORTHERN AND CENTRAL MISSOURI...

CITY           SKY/WX    TMP DP  RH WIND       PRES   REMARKS
ST. JOSEPH     CLEAR     67  41  38 SE20      29.65F
MOSBY            N/A     66  39  37 SE10G20   29.70F
WARRENSBURG    PTCLDY   N/A N/A N/A E10       29.76S
WHITEMAN AFB   PTCLDY    64  34  32 SE14      29.77F
CLINTON        CLEAR     70  41  35 SE13      29.78F
SEDALIA        CLEAR     63  40  42 SE16      29.81S
WARSAW         NOT AVBL
MARSHALL         N/A     64  43  45 SE16G23   29.81S
CHILLICOTHE      N/A     61  41  47 E15G22    29.78S
MOBERLY        PTCLDY    57  36  44 SE18      29.85F
KIRKSVILLE     MOCLDY    55  35  47 SE14      29.85S

$$

MOZ041-047>049-056>058-063>065-088>090-097-240300-
...EASTERN AND SOUTHERN MISSOURI...

CITY           SKY/WX    TMP DP  RH WIND       PRES   REMARKS
ST. LOUIS INTL CLOUDY    61  32  33 E15       29.97F
SPIRIT OF STL  PTCLDY    60  34  37 E7        29.94F
COLUMBIA       PTCLDY    59  38  45 E15       29.87F
JEFFERSON CITY CLEAR     61  39  44 E13       29.87S
MEXICO         MOCLDY    54  39  58 SE9       29.89F
HANNIBAL       MOCLDY    59  30  33 SE10G21   29.90F
ROLLA          CLEAR     56  40  55 E9        29.88F
LEBANON        CLEAR     64  34  32 SE8       29.88R
OSAGE BEACH    CLEAR     68  34  28 SE6       29.87R
SPRINGFIELD    PTCLDY    69  41  36 SE17      29.82S
BRANSON        MOCLDY    68  41  37 SE14      29.87S
NEVADA         CLEAR     70  45  40 SE16      29.76F
JOPLIN         PTCLDY    72  44  36 SE8       29.78R
WEST PLAINS    CLEAR     64  36  35 SE9       29.92F
MALDEN         CLEAR     63  41  45 E6        29.97F

$$

IAZ060-094-KSZ022-034>040-054-083-096-NEZ052-066-093-240300-
...KANSAS...SOUTHEAST NEBRASKA AND IOWA...

CITY           SKY/WX    TMP DP  RH WIND       PRES   REMARKS
TOPEKA         PTCLDY    76  45  33 S20G32    29.61F
MANHATTAN      MOCLDY    76  51  41 S22G32    29.54F
EMPORIA        CLOUDY    74  52  46 S26G38    29.61S
CHANUTE        CLOUDY    74  52  46 SE15      29.71R
WICHITA        CLOUDY    78  48  34 S28G38    29.59R
OMAHA          CLOUDY    56  43  61 E8        29.67R
LINCOLN        CLOUDY    63  47  55 E12       29.58S
FALLS CITY     MOCLDY    67  45  45 SE20G26   29.61S
LAMONI         MOCLDY    56  38  50 SE10G23   29.75F
DES MOINES     LGT RAIN  50  39  66 SE17G28   29.78F

$$





U.S. Dept. of Commerce
NOAA National Weather Service
1325 East West Highway
Silver Spring, MD 20910
E-mail: w-nws.webmaster@noaa.gov
Page last modified: May 16, 2007
NATIONAL WEATHER SERVICE: for Safety, for Work, for Fun - FOR LIFE